• In Hungary
  • List of Countries
  • For 7 days
  • Water Temperature
  • Satellite Maps
  • Weather Map
  • News
  • Weather Widgets
  • user-avatar
    Login

    Hourly Weather Bolshoy Shuduguzh

    Today, 19 July, Thursday

    Time Temperature Precipitation Wind Pressure Humidity
    00:00 +19°C° 0 mm 2 mps 745 mmHg 95%
    01:00 +19°C° 0 mm 2 mps 745 mmHg 96%
    02:00 +18°C° 0 mm 2 mps 745 mmHg 96%
    03:00 +18°C° 0 mm 2 mps 745 mmHg 97%
    04:00 +19°C° 0.2 mm 3 mps 745 mmHg 97%
    05:00 +19°C° 0.2 mm 3 mps 745 mmHg 96%
    06:00 +19°C° 0.2 mm 3 mps 745 mmHg 96%
    07:00 +20°C° 0.2 mm 3 mps 745 mmHg 95%
    08:00 +20°C° 0.2 mm 3 mps 746 mmHg 94%
    09:00 +20°C° 0.2 mm 3 mps 746 mmHg 93%
    10:00 +21°C° 0.2 mm 3 mps 746 mmHg 90%
    11:00 +22°C° 0.2 mm 3 mps 746 mmHg 87%
    12:00 +24°C° 0.2 mm 3 mps 746 mmHg 84%
    13:00 +24°C° 0.6 mm 3 mps 746 mmHg 82%
    14:00 +25°C° 0.6 mm 4 mps 746 mmHg 81%
    15:00 +25°C° 0.6 mm 4 mps 746 mmHg 80%
    16:00 +25°C° 0.2 mm 4 mps 746 mmHg 80%
    17:00 +25°C° 0.2 mm 4 mps 746 mmHg 80%
    18:00 +25°C° 0.2 mm 4 mps 746 mmHg 80%
    19:00 +22°C° 0.1 mm 3 mps 746 mmHg 84%
    20:00 +21°C° 0.1 mm 3 mps 746 mmHg 89%
    21:00 +20°C° 0.1 mm 3 mps 746 mmHg 93%
    22:00 +20°C° 0.2 mm 3 mps 746 mmHg 94%
    23:00 +19°C° 0.2 mm 3 mps 746 mmHg 96%

    Tomorrow, 20 July, Friday

    Time Temperature Precipitation Wind Pressure Humidity
    00:00 +19°C° 0.2 mm 3 mps 746 mmHg 97%
    01:00 +19°C° 0.5 mm 3 mps 747 mmHg 97%
    02:00 +19°C° 0.5 mm 3 mps 747 mmHg 97%
    03:00 +19°C° 0.5 mm 3 mps 747 mmHg 98%
    04:00 +19°C° 0.7 mm 3 mps 747 mmHg 97%
    05:00 +19°C° 0.7 mm 3 mps 747 mmHg 97%
    06:00 +20°C° 0.7 mm 3 mps 747 mmHg 97%
    07:00 +20°C° 0.8 mm 3 mps 748 mmHg 96%
    08:00 +21°C° 0.8 mm 3 mps 748 mmHg 95%
    09:00 +21°C° 0.8 mm 3 mps 748 mmHg 95%
    10:00 +22°C° 0.5 mm 3 mps 748 mmHg 90%
    11:00 +25°C° 0.5 mm 3 mps 748 mmHg 85%
    12:00 +26°C° 0.5 mm 4 mps 749 mmHg 81%
    13:00 +27°C° 0.2 mm 4 mps 749 mmHg 77%
    14:00 +27°C° 0.2 mm 4 mps 749 mmHg 74%
    15:00 +28°C° 0.2 mm 4 mps 749 mmHg 70%
    16:00 +27°C° 0.4 mm 4 mps 749 mmHg 73%
    17:00 +27°C° 0.4 mm 4 mps 749 mmHg 77%
    18:00 +26°C° 0.4 mm 3 mps 749 mmHg 80%
    19:00 +25°C° 0.1 mm 3 mps 749 mmHg 85%
    20:00 +24°C° 0.1 mm 3 mps 749 mmHg 89%
    21:00 +21°C° 0.1 mm 3 mps 749 mmHg 93%
    22:00 +21°C° 0.8 mm 3 mps 749 mmHg 94%
    23:00 +20°C° 0.8 mm 3 mps 749 mmHg 95%

    Day after tomorrow, 21 July, Saturday

    Time Temperature Precipitation Wind Pressure Humidity
    00:00 +20°C° 0.8 mm 3 mps 749 mmHg 96%
    01:00 +19°C° 0.1 mm 3 mps 749 mmHg 97%
    02:00 +19°C° 0.1 mm 3 mps 749 mmHg 97%
    03:00 +19°C° 0.1 mm 3 mps 749 mmHg 98%
    04:00 +19°C° 0 mm 3 mps 750 mmHg 97%
    05:00 +19°C° 0 mm 3 mps 750 mmHg 97%
    06:00 +20°C° 0 mm 3 mps 750 mmHg 96%
    07:00 +20°C° 0 mm 3 mps 750 mmHg 94%
    08:00 +21°C° 0 mm 3 mps 750 mmHg 92%
    09:00 +22°C° 0 mm 4 mps 750 mmHg 90%
    10:00 +22°C° 0 mm 4 mps 750 mmHg 86%
    11:00 +23°C° 0 mm 4 mps 750 mmHg 81%
    12:00 +25°C° 0 mm 4 mps 750 mmHg 77%
    13:00 +26°C° 0 mm 4 mps 750 mmHg 74%
    14:00 +26°C° 0 mm 4 mps 750 mmHg 71%
    15:00 +27°C° 0 mm 4 mps 750 mmHg 68%
    16:00 +26°C° 0.1 mm 4 mps 750 mmHg 72%
    17:00 +26°C° 0.1 mm 4 mps 750 mmHg 75%
    18:00 +25°C° 0.1 mm 4 mps 750 mmHg 79%
    19:00 +23°C° 0 mm 4 mps 750 mmHg 83%
    20:00 +22°C° 0 mm 3 mps 750 mmHg 87%
    21:00 +21°C° 0 mm 3 mps 750 mmHg 91%
    22:00 +20°C° 0 mm 3 mps 750 mmHg 91%
    23:00 +20°C° 0 mm 4 mps 750 mmHg 91%

    22 July, Sunday

    Time Temperature Precipitation Wind Pressure Humidity
    00:00 +20°C° 0 mm 4 mps 750 mmHg 90%
    01:00 +19°C° 0 mm 4 mps 750 mmHg 90%
    02:00 +19°C° 0 mm 4 mps 750 mmHg 90%
    03:00 +19°C° 0 mm 4 mps 750 mmHg 90%
    04:00 +19°C° 0 mm 4 mps 750 mmHg 88%
    05:00 +19°C° 0 mm 4 mps 750 mmHg 86%
    06:00 +19°C° 0 mm 4 mps 750 mmHg 84%
    07:00 +20°C° 0 mm 5 mps 750 mmHg 80%
    08:00 +22°C° 0 mm 5 mps 751 mmHg 76%
    09:00 +23°C° 0 mm 5 mps 751 mmHg 72%
    10:00 +23°C° 0.2 mm 5 mps 751 mmHg 73%
    11:00 +25°C° 0.2 mm 5 mps 751 mmHg 74%
    12:00 +25°C° 0.2 mm 5 mps 751 mmHg 75%
    13:00 +25°C° 1.1 mm 5 mps 751 mmHg 77%
    14:00 +25°C° 1.1 mm 5 mps 751 mmHg 80%
    15:00 +25°C° 1.1 mm 5 mps 751 mmHg 82%
    16:00 +23°C° 0.7 mm 5 mps 751 mmHg 83%
    17:00 +23°C° 0.7 mm 4 mps 751 mmHg 85%
    18:00 +22°C° 0.7 mm 4 mps 751 mmHg 86%
    19:00 +21°C° 0.1 mm 4 mps 751 mmHg 88%
    20:00 +20°C° 0.1 mm 4 mps 751 mmHg 90%
    21:00 +19°C° 0.1 mm 4 mps 751 mmHg 92%
    22:00 +19°C° 0 mm 4 mps 751 mmHg 92%
    23:00 +18°C° 0 mm 4 mps 751 mmHg 92%

    23 July, Monday

    Time Temperature Precipitation Wind Pressure Humidity
    00:00 +18°C° 0 mm 4 mps 751 mmHg 92%
    01:00 +17°C° 0 mm 4 mps 751 mmHg 91%
    02:00 +17°C° 0 mm 4 mps 751 mmHg 90%
    03:00 +15°C° 0 mm 4 mps 751 mmHg 89%
    04:00 +17°C° 0 mm 4 mps 751 mmHg 88%
    05:00 +17°C° 0 mm 4 mps 751 mmHg 87%
    06:00 +17°C° 0 mm 4 mps 751 mmHg 86%
    07:00 +18°C° 0.2 mm 4 mps 751 mmHg 85%
    08:00 +19°C° 0.2 mm 5 mps 751 mmHg 84%
    09:00 +19°C° 0.2 mm 5 mps 751 mmHg 83%
    10:00 +19°C° 0.6 mm 5 mps 751 mmHg 86%
    11:00 +17°C° 0.6 mm 5 mps 752 mmHg 88%
    12:00 +16°C° 0.6 mm 5 mps 752 mmHg 91%
    13:00 +16°C° 0.3 mm 5 mps 752 mmHg 91%
    14:00 +17°C° 0.3 mm 5 mps 752 mmHg 90%
    15:00 +18°C° 0.3 mm 4 mps 752 mmHg 90%
    16:00 +18°C° 0 mm 4 mps 752 mmHg 88%
    17:00 +19°C° 0 mm 4 mps 752 mmHg 86%
    18:00 +19°C° 0 mm 5 mps 752 mmHg 83%
    19:00 +19°C° 0 mm 4 mps 752 mmHg 83%
    20:00 +18°C° 0 mm 4 mps 752 mmHg 83%
    21:00 +18°C° 0 mm 4 mps 752 mmHg 83%
    22:00 +18°C° 0 mm 4 mps 752 mmHg 83%
    23:00 +17°C° 0 mm 4 mps 752 mmHg 83%

    24 July, Tuesday

    Time Temperature Precipitation Wind Pressure Humidity
    00:00 +17°C° 0 mm 4 mps 752 mmHg 84%
    01:00 +17°C° 0 mm 4 mps 752 mmHg 84%
    02:00 +17°C° 0 mm 4 mps 752 mmHg 84%
    03:00 +15°C° 0 mm 4 mps 752 mmHg 84%
    04:00 +17°C° 0 mm 4 mps 752 mmHg 83%
    05:00 +17°C° 0 mm 4 mps 752 mmHg 81%
    06:00 +18°C° 0 mm 4 mps 752 mmHg 80%
    07:00 +19°C° 0 mm 4 mps 752 mmHg 75%
    08:00 +20°C° 0 mm 5 mps 752 mmHg 70%
    09:00 +22°C° 0 mm 5 mps 752 mmHg 65%
    10:00 +23°C° 0 mm 5 mps 752 mmHg 60%
    11:00 +25°C° 0 mm 5 mps 753 mmHg 55%
    12:00 +26°C° 0 mm 5 mps 753 mmHg 50%
    13:00 +27°C° 0 mm 5 mps 753 mmHg 51%
    14:00 +27°C° 0 mm 5 mps 753 mmHg 51%
    15:00 +27°C° 0 mm 5 mps 753 mmHg 51%
    16:00 +26°C° 0 mm 5 mps 752 mmHg 55%
    17:00 +26°C° 0 mm 4 mps 752 mmHg 60%
    18:00 +25°C° 0 mm 4 mps 752 mmHg 64%
    19:00 +22°C° 0 mm 4 mps 753 mmHg 68%
    20:00 +21°C° 0 mm 4 mps 753 mmHg 72%
    21:00 +20°C° 0 mm 3 mps 753 mmHg 77%
    22:00 +19°C° 0 mm 3 mps 753 mmHg 79%
    23:00 +18°C° 0 mm 3 mps 753 mmHg 81%
    Show more